User: anonymous
Location: Trois-Rivi�res
(46.3500°N, 72.5500°W)
Time: 02:18:53
(UTC-04:00)
Language:

Cosmos 1975 - Orbit

View from above orbital plane
View from above orbital plane
View from above satellite
View from above satellite

Ground track
Ground track

The orbit data is extracted from the following two-line orbital elements,

1 19573U 88093A   14264.72302738  .00002748  00000-0  21410-3 0  3189
2 19573 082.5221 230.7961 0017613 097.1753 263.1475 15.00731453409678
Epoch (UTC): 21 September 2014 17:21:09
Eccentricity: 0.0017613
inclination: 82.5221°
perigee height: 552 km
apogee height: 577 km
right ascension of ascending node: 230.7961°
argument of perigee: 97.1753°
revolutions per day: 15.00731453
mean anomaly at epoch: 263.1475°
orbit number at epoch: 40967

The dashed part of the orbit path shows where the satellite is in the earth's shadow,  

DLR